When you browse on this site, cookies collect data to enhance your experience and personalize the content and advertising you see.
Visit our Privacy Policy to learn more. By continuing to use the site, you agree to this use of cookies and data.
  • en Suisse
  • Liste des pays
  • À 7 jours
  • Température de l'eau
  • Carte satellitaire
  • Carte météo
  • Widgets météo
  • user-avatar
    Se connecter

    Météo par heure à Quito

    Ce jour, 24 Mars, Dimanche

    Heure Température Précipitation Vent Pression Humidité
    00:00 +19°C° 0 mm 1 m/s 622 mmHg 83%
    01:00 +17°C° 0 mm 0 m/s 622 mmHg 83%
    02:00 +16°C° 0 mm 0 m/s 622 mmHg 84%
    03:00 +16°C° 0 mm 0 m/s 621 mmHg 85%
    04:00 +16°C° 0 mm 0 m/s 621 mmHg 87%
    05:00 +16°C° 0 mm 0 m/s 622 mmHg 86%
    06:00 +17°C° 0 mm 0 m/s 622 mmHg 85%
    07:00 +17°C° 0 mm 0 m/s 622 mmHg 84%
    08:00 +22°C° 0 mm 1 m/s 623 mmHg 73%
    09:00 +24°C° 0 mm 2 m/s 624 mmHg 62%
    10:00 +26°C° 0 mm 2 m/s 625 mmHg 52%
    11:00 +27°C° 0 mm 3 m/s 624 mmHg 50%
    12:00 +27°C° 0 mm 3 m/s 624 mmHg 48%
    13:00 +28°C° 0 mm 4 m/s 623 mmHg 46%
    14:00 +28°C° 0 mm 3 m/s 623 mmHg 48%
    15:00 +28°C° 0 mm 2 m/s 623 mmHg 49%
    16:00 +28°C° 0 mm 1 m/s 622 mmHg 50%
    17:00 +26°C° 0 mm 1 m/s 622 mmHg 54%
    18:00 +24°C° 0 mm 1 m/s 622 mmHg 58%
    19:00 +22°C° 0 mm 1 m/s 621 mmHg 62%
    20:00 +22°C° 0.1 mm 1 m/s 622 mmHg 64%
    21:00 +19°C° 0.1 mm 0 m/s 622 mmHg 65%
    22:00 +19°C° 0.1 mm 0 m/s 623 mmHg 67%
    23:00 +19°C° 0.5 mm 0 m/s 623 mmHg 71%

    Demain, 25 Mars, Lundi

    Heure Température Précipitation Vent Pression Humidité
    00:00 +20°C° 0.5 mm 1 m/s 622 mmHg 75%
    01:00 +20°C° 0.5 mm 1 m/s 622 mmHg 80%
    02:00 +19°C° 0 mm 1 m/s 622 mmHg 81%
    03:00 +17°C° 0 mm 0 m/s 621 mmHg 83%
    04:00 +16°C° 0 mm 0 m/s 621 mmHg 84%
    05:00 +17°C° 0 mm 0 m/s 621 mmHg 84%
    06:00 +17°C° 0 mm 0 m/s 622 mmHg 84%
    07:00 +18°C° 0 mm 0 m/s 622 mmHg 83%
    08:00 +22°C° 0 mm 1 m/s 623 mmHg 74%
    09:00 +24°C° 0 mm 2 m/s 624 mmHg 65%
    10:00 +26°C° 0 mm 2 m/s 625 mmHg 56%
    11:00 +26°C° 0 mm 3 m/s 624 mmHg 53%
    12:00 +27°C° 0 mm 3 m/s 624 mmHg 51%
    13:00 +28°C° 0 mm 4 m/s 623 mmHg 49%
    14:00 +27°C° 0 mm 3 m/s 622 mmHg 52%
    15:00 +27°C° 0 mm 3 m/s 622 mmHg 55%
    16:00 +26°C° 0 mm 2 m/s 621 mmHg 59%
    17:00 +24°C° 0 mm 2 m/s 621 mmHg 65%
    18:00 +22°C° 0 mm 1 m/s 621 mmHg 71%
    19:00 +20°C° 0 mm 1 m/s 621 mmHg 77%
    20:00 +20°C° 0 mm 1 m/s 621 mmHg 77%
    21:00 +18°C° 0 mm 0 m/s 622 mmHg 77%
    22:00 +18°C° 0 mm 0 m/s 622 mmHg 77%
    23:00 +18°C° 0 mm 0 m/s 622 mmHg 77%

    Après-demain, 26 Mars, Mardi

    Heure Température Précipitation Vent Pression Humidité
    00:00 +17°C° 0 mm 0 m/s 622 mmHg 78%
    01:00 +17°C° 0 mm 0 m/s 622 mmHg 78%
    02:00 +17°C° 0 mm 0 m/s 621 mmHg 81%
    03:00 +16°C° 0 mm 0 m/s 621 mmHg 83%
    04:00 +15°C° 0 mm 0 m/s 620 mmHg 86%
    05:00 +16°C° 0 mm 0 m/s 621 mmHg 85%
    06:00 +18°C° 0 mm 1 m/s 622 mmHg 84%
    07:00 +19°C° 0 mm 1 m/s 623 mmHg 84%
    08:00 +21°C° 0.1 mm 1 m/s 623 mmHg 77%
    09:00 +23°C° 0.1 mm 1 m/s 624 mmHg 71%
    10:00 +25°C° 0.1 mm 1 m/s 625 mmHg 65%
    11:00 +26°C° 0 mm 1 m/s 625 mmHg 59%
    12:00 +27°C° 0 mm 1 m/s 625 mmHg 53%
    13:00 +28°C° 0 mm 1 m/s 624 mmHg 47%
    14:00 +27°C° 0.2 mm 1 m/s 624 mmHg 54%
    15:00 +25°C° 0.2 mm 1 m/s 623 mmHg 62%
    16:00 +24°C° 0.2 mm 2 m/s 622 mmHg 69%
    17:00 +21°C° 0.5 mm 2 m/s 622 mmHg 76%
    18:00 +20°C° 0.5 mm 2 m/s 622 mmHg 82%
    19:00 +18°C° 0.5 mm 2 m/s 622 mmHg 89%
    20:00 +18°C° 0.8 mm 2 m/s 622 mmHg 90%
    21:00 +18°C° 0.8 mm 2 m/s 623 mmHg 91%
    22:00 +17°C° 0.8 mm 2 m/s 623 mmHg 92%
    23:00 +18°C° 0.7 mm 1 m/s 623 mmHg 92%

    27 Mars, Mercredi

    Heure Température Précipitation Vent Pression Humidité
    00:00 +18°C° 0.7 mm 1 m/s 623 mmHg 91%
    01:00 +18°C° 0.7 mm 1 m/s 623 mmHg 91%
    02:00 +18°C° 0.2 mm 1 m/s 623 mmHg 91%
    03:00 +18°C° 0.2 mm 1 m/s 623 mmHg 91%
    04:00 +18°C° 0.2 mm 1 m/s 622 mmHg 92%
    05:00 +18°C° 0 mm 1 m/s 623 mmHg 91%
    06:00 +19°C° 0 mm 1 m/s 623 mmHg 90%
    07:00 +19°C° 0 mm 1 m/s 624 mmHg 89%
    08:00 +21°C° 0.5 mm 1 m/s 625 mmHg 82%
    09:00 +23°C° 0.5 mm 1 m/s 625 mmHg 76%
    10:00 +25°C° 0.5 mm 1 m/s 626 mmHg 69%
    11:00 +25°C° 0.3 mm 2 m/s 625 mmHg 65%
    12:00 +26°C° 0.3 mm 2 m/s 625 mmHg 62%
    13:00 +27°C° 0.3 mm 3 m/s 624 mmHg 58%
    14:00 +26°C° 2 mm 2 m/s 624 mmHg 64%
    15:00 +25°C° 2 mm 2 m/s 623 mmHg 69%
    16:00 +25°C° 2 mm 2 m/s 623 mmHg 74%
    17:00 +23°C° 2.2 mm 1 m/s 623 mmHg 78%
    18:00 +22°C° 2.2 mm 1 m/s 623 mmHg 82%
    19:00 +20°C° 2.2 mm 1 m/s 624 mmHg 86%
    20:00 +20°C° 0.6 mm 1 m/s 624 mmHg 87%
    21:00 +19°C° 0.6 mm 1 m/s 624 mmHg 89%
    22:00 +19°C° 0.6 mm 1 m/s 624 mmHg 91%
    23:00 +18°C° 0.1 mm 1 m/s 624 mmHg 93%

    28 Mars, Jeudi

    Heure Température Précipitation Vent Pression Humidité
    00:00 +18°C° 0.1 mm 1 m/s 624 mmHg 94%
    01:00 +18°C° 0.1 mm 1 m/s 624 mmHg 95%
    02:00 +18°C° 0 mm 1 m/s 623 mmHg 96%
    03:00 +15°C° 0 mm 0 m/s 623 mmHg 97%
    04:00 +15°C° 0 mm 0 m/s 623 mmHg 98%
    05:00 +16°C° 0 mm 0 m/s 623 mmHg 96%
    06:00 +16°C° 0 mm 0 m/s 624 mmHg 95%
    07:00 +16°C° 0 mm 0 m/s 624 mmHg 94%
    08:00 +20°C° 0 mm 1 m/s 625 mmHg 87%
    09:00 +22°C° 0 mm 1 m/s 625 mmHg 80%
    10:00 +23°C° 0 mm 1 m/s 626 mmHg 72%
    11:00 +24°C° 0 mm 2 m/s 625 mmHg 69%
    12:00 +25°C° 0 mm 2 m/s 624 mmHg 66%
    13:00 +25°C° 0 mm 2 m/s 624 mmHg 63%
    14:00 +25°C° 0.5 mm 2 m/s 623 mmHg 66%
    15:00 +25°C° 0.5 mm 2 m/s 623 mmHg 69%
    16:00 +24°C° 0.5 mm 2 m/s 623 mmHg 73%
    17:00 +23°C° 1.5 mm 1 m/s 623 mmHg 78%
    18:00 +21°C° 1.5 mm 1 m/s 623 mmHg 84%
    19:00 +19°C° 1.5 mm 1 m/s 623 mmHg 89%
    20:00 +19°C° 1.8 mm 1 m/s 623 mmHg 89%
    21:00 +19°C° 1.8 mm 1 m/s 624 mmHg 88%
    22:00 +19°C° 1.8 mm 1 m/s 624 mmHg 87%
    23:00 +17°C° 0.6 mm 0 m/s 623 mmHg 89%

    29 Mars, Vendredi

    Heure Température Précipitation Vent Pression Humidité
    00:00 +16°C° 0.6 mm 0 m/s 623 mmHg 91%
    01:00 +15°C° 0.6 mm 0 m/s 622 mmHg 93%
    02:00 +15°C° 0.5 mm 0 m/s 622 mmHg 93%
    03:00 +15°C° 0.5 mm 0 m/s 622 mmHg 94%
    04:00 +15°C° 0.5 mm 0 m/s 622 mmHg 94%
    05:00 +16°C° 0.2 mm 0 m/s 623 mmHg 93%
    06:00 +16°C° 0.2 mm 0 m/s 623 mmHg 92%
    07:00 +17°C° 0.2 mm 0 m/s 624 mmHg 91%
    08:00 +20°C° 0.4 mm 1 m/s 624 mmHg 86%
    09:00 +21°C° 0.4 mm 2 m/s 624 mmHg 81%
    10:00 +23°C° 0.4 mm 2 m/s 625 mmHg 77%
    11:00 +24°C° 0.1 mm 3 m/s 624 mmHg 70%
    12:00 +25°C° 0.1 mm 3 m/s 624 mmHg 64%
    13:00 +26°C° 0.1 mm 3 m/s 624 mmHg 58%
    14:00 +26°C° 0 mm 3 m/s 623 mmHg 59%
    15:00 +26°C° 0 mm 2 m/s 623 mmHg 59%
    16:00 +26°C° 0 mm 2 m/s 623 mmHg 60%
    17:00 +24°C° 0.1 mm 1 m/s 623 mmHg 66%
    18:00 +22°C° 0.1 mm 1 m/s 622 mmHg 73%
    19:00 +18°C° 0.1 mm 0 m/s 622 mmHg 80%
    20:00 +20°C° 1.1 mm 1 m/s 622 mmHg 84%
    21:00 +19°C° 1.1 mm 1 m/s 622 mmHg 87%
    22:00 +19°C° 1.1 mm 1 m/s 623 mmHg 91%
    23:00 +18°C° 0.9 mm 1 m/s 622 mmHg 93%
    Voir plus